Regional Weather Roundup
Issued by NWS State College, PA

Home | Current Version | Previous Version | Text Only | Print | Product List | Glossary On
Versions: 1 2 3 4 5 6 7 8 9 10 11 12 13 14 15 16 17 18 19 20 21 22 23 24 25 26 27 28 29 30 31 32 33 34 35 36 37 38 39 40 41 42 43 44 45 46 47 48 49 50
000
ASUS41 KCTP 242103
RWRCTP

REGIONAL WEATHER ROUNDUP
NATIONAL WEATHER SERVICE STATE COLLEGE PA
500 PM EDT MON JUL 24 2017

Note: "fair" indicates few or no clouds below 12,000 feet with no
significant weather and/or obstructions to visibility.

* = STATION THAT DOES NOT REPORT PRECIPITATION /E.G. RAIN...SNOW...ETC/
    THUNDER OR FOG.

PAZ002>004-007>009-013>016-020>023-029>032-242200-
WESTERN PENNSYLVANIA

CITY           SKY/WX    TMP DP  RH WIND       PRES   REMARKS
ERIE           CLOUDY    69  59  70 W17G26    29.90S
MEADVILLE      CLOUDY    67  61  81 NW8       29.94S
FRANKLIN*      CLOUDY    68  55  64 NW13G21   29.94R
NEW CASTLE     CLOUDY    72  60  66 N12       29.95R
BEAVER COUNTY  PTSUNNY   73  61  64 NW14      29.93R
BUTLER*        PTSUNNY   73  61  64 NW9G17    29.92S
PITTSBURGH INT PTSUNNY   77  63  61 NW16      29.91R
PITTSBURGH     FAIR      78  62  57 NW13G24   29.90R
INDIANA*       PTSUNNY   75  64  69 NW13G23   29.92R
LATROBE        PTSUNNY   77  66  69 NW10      29.89R
WASHINGTON CO* FAIR      79  66  65 NW9       29.91S
$$

PAZ004>006-010>012-017>019-024>028-033>037-041-042-045-046-049>053-242200-
CENTRAL PENNSYLVANIA

CITY           SKY/WX    TMP DP  RH WIND       PRES   REMARKS
BRADFORD       CLOUDY    70  58  65 W10G20    29.89R
DUBOIS         PTSUNNY   72  58  61 W15       29.89R
CLEARFIELD     FAIR      77  61  57 NW16G26   29.87R
JOHNSTOWN      PTSUNNY   72  65  78 NW15G24   29.92S
ALTOONA        FAIR      77  66  68 NW10      29.87F
STATE COLLEGE  MOSUNNY   79  66  65 W10G17    29.84S
WILLIAMSPORT   FAIR      80  69  69 W6        29.77F
SELINSGROVE    CLOUDY    72  68  87 NE7       29.81R
FT INDIANTOWN  PTSUNNY   83  69  61 SW6       29.78F
CAPITAL CITY   FAIR      86  64  47 SW9G16    29.78F
HARRISBURG     FAIR      85  66  53 VRB7      29.77F
YORK           CLOUDY    83  68  60 SW6       29.80F
$$

PAZ038>040-043-044-047-048-054-055-060>062-067>071-242200-
EASTERN PENNSYLVANIA

CITY           SKY/WX    TMP DP  RH WIND       PRES   REMARKS
SCRANTON       PTSUNNY   80  65  59 N9        29.81R
MOUNT POCONO   CLOUDY    66  63  90 SE10      29.87R
ALLENTOWN      PTSUNNY   82  67  60 SE9       29.80S
QUAKERTOWN*    FAIR      84  70  61 S6        29.81F
READING        FAIR      86  69  56 SW12      29.78S
LANCASTER      FAIR      87  70  56 S10       29.79F
COATESVILLE    FAIR      82  68  61 SW3       29.83F
POTTSTOWN      PTSUNNY   84  67  56 SW6       29.81S
BLUE BELL      CLOUDY    81  70  69 CALM      29.81F
DOYLESTOWN     PTSUNNY   80  69  69 SE5       29.81S
WILLOW GROVE   NOT AVBL
NORTH PHILA    FAIR      83  69  62 E10       29.81S
PHILADELPHIA   FAIR      87  67  51 SW9       29.79F
$$




USA.gov is the U.S. government's official web portal to all federal, state and local government web resources and services.